This is the latest recevied weather packets stored in our database for station/object JF1AJE-13. If no packets are shown the sender has not sent any weather packets the latest 10 day(s).
| Time | Temp. | Humidity | Pressure | Rain* | Wind** | Luminosity | Snow |
|---|---|---|---|---|---|---|---|
| 1777652946 | 11.67° C | 81% | 990.7 hPa | 0 mm | - | - | - |
| 1777651745 | 12.22° C | 82% | 990.6 hPa | 0 mm | - | - | - |
| 1777650547 | 12.78° C | 85% | 990.7 hPa | 0 mm | - | - | - |
| 1777649347 | 12.78° C | 85% | 990.8 hPa | 0 mm | - | - | - |
| 1777648147 | 13.33° C | 84% | 990.8 hPa | 0 mm | - | - | - |
| 1777646946 | 13.33° C | 83% | 990.7 hPa | 0 mm | - | - | - |
| 1777645746 | 13.89° C | 83% | 990.7 hPa | 0 mm | - | - | - |
| 1777644547 | 13.89° C | 82% | 990.4 hPa | 0 mm | - | - | - |
| 1777643347 | 13.89° C | 81% | 990.7 hPa | 0 mm | - | - | - |
| 1777642146 | 14.44° C | 80% | 990.7 hPa | 0 mm | - | - | - |
| 1777640947 | 14.44° C | 79% | 990.8 hPa | 0 mm | - | - | - |
| 1777639746 | 14.44° C | 77% | 990.4 hPa | 0 mm | - | - | - |
| 1777638546 | 15° C | 74% | 989.8 hPa | 0 mm | - | - | - |
| 1777637347 | 16.11° C | 67% | 989.7 hPa | 0 mm | - | - | - |
| 1777636146 | 16.67° C | 59% | 989.2 hPa | 0 mm | - | - | - |
| 1777634946 | 17.22° C | 57% | 988.5 hPa | 0 mm | - | - | - |
| 1777633748 | 17.22° C | 54% | 988 hPa | 0 mm | - | - | - |
| 1777632546 | 17.78° C | 55% | 987.6 hPa | 0 mm | - | - | - |
| 1777631347 | 17.78° C | 55% | 986.1 hPa | 0 mm | - | - | - |
| 1777630146 | 18.33° C | 59% | 986.4 hPa | 0 mm | - | - | - |
| 1777628948 | 18.33° C | 64% | 986.2 hPa | 0 mm | - | - | - |
| 1777627749 | 18.89° C | 70% | 986.6 hPa | 0 mm | - | - | - |
| 1777626548 | 18.89° C | 72% | 986.6 hPa | 0 mm | - | - | - |
| 1777625347 | 19.44° C | 71% | 987 hPa | 0 mm | - | - | - |
| 1777624152 | 19.44° C | 70% | 987.5 hPa | 0 mm | - | - | - |
* Rain latest hour (hover to see other rain measurements)
** Current wind speed in m/s (hover to see current wind gust speed)